Location: Sternwarte ZA, Rosenfeld-Brittheim
(48.2889°N, 8.6789°E)
Time: 05:38:59
(UTC+01:00)

ISS - Pass Details

Date: 22 November 2020
Orbit: 418 x 421 km, 51.6° (Epoch: 26 November)

Event Time Altitude Azimuth Distance (km) Brightness Sun altitude
Rises 19:41:50 0° 256° (WSW) 2,359 1.1 -29.9°
Reaches altitude 10° 19:43:56 10° 259° (W) 1,497 -0.1 -30.3°
Enters shadow 19:44:29 14° 261° (W) 1,278 -0.5 -30.4°
